TIANWANG 1B (TW-1B)
1 40927U 15051C   19101.33657277  .00013702  00000-0  22318-3 0  9998
2 40927  97.1467 147.1324 0006457 278.2559 212.5074 15.52728934199400
TIANWANG 1A (TW-1A)
1 40928U 15051D   19101.36261698  .00004376  00000-0  11031-3 0  9997
2 40928  97.1533 134.1693 0010059 331.0458 150.4296 15.40346202198652
LAPAN A2
1 40931U 15052B   19100.72500907  .00000309  00000-0 -46087-4 0  9993
2 40931   5.9980 188.5106 0012505 266.1240  93.7338 14.76601153191056
LQSAT
1 40958U 15057A   19101.36596894  .00000035  00000-0  13018-4 0  9991
2 40958  97.9038 172.3868 0019767  99.9328 260.4117 14.73072540188741
CHUBUSAT 2
1 41338U 16012B   19100.42514242  .00000434  00000-0  27147-4 0  9990
2 41338  31.0025 224.9580 0013645 137.3691 222.8006 15.00120407172506
CHUBUSAT 3
1 41339U 16012C   19101.33421406  .00000465  00000-0  29441-4 0  9994
2 41339  31.0122 217.3643 0013137 152.3988 207.7352 15.00299080172637
OUFTI-1
1 41458U 16025C   19101.20570726  .00001449  00000-0  78359-4 0  9991
2 41458  98.1022 184.5817 0166100 226.7090 132.0194 15.05551421162277
E-STAR-2
1 41459U 16025D   19101.27271247  .00001317  00000-0  72047-4 0  9997
2 41459  98.1023 184.3582 0167297 227.6676 131.0285 15.05214107162259
AAUSAT 4
1 41460U 16025E   19101.19902100  .00002116  00000-0  11084-3 0  9990
2 41460  98.0965 185.3520 0157598 221.5297 137.3920 15.06988174162352
NUSAT 1
1 41557U 16033B   19101.43976705  .00002360  00000-0  91576-4 0  9991
2 41557  97.4173 189.3474 0014205 172.4133 187.7323 15.27025126159674
BEESAT 4
1 41619U 16040W   19100.85760288 +.00001873 +00000-0 +82772-4 0  9996
2 41619 097.3745 164.3454 0009699 264.2902 095.7229 15.22923283143383
PRATHAM
1 41783U 16059A   19101.13692655  .00000045  00000-0  17965-4 0  9994
2 41783  98.0749 162.2062 0032449 238.2454 121.5585 14.62982522135525
ALSAT 1N
1 41789U 16059G   19101.38899694  .00000083  00000-0  24883-4 0  9998
2 41789  98.0769 164.2999 0027293 226.6820 133.2107 14.64228462135655
NAYIF 1
1 42017U 17008BX  19100.81987523  .00002411  00000-0  98535-4 0  9996
2 42017  97.4086 168.6098 0007659  61.5212 298.6796 15.25311505119424
LILACSAT-1
1 42725U 98067ME  19087.71781172  .15670676  12603-4  45746-3 0  9992
2 42725  51.6064 319.7683 0009359 299.6698  60.5570 16.44549673105565
MAX VALIER SAT
1 42778U 17036P   19100.16501404  .00001288  00000-0  59544-4 0  9997
2 42778  97.3621 159.3386 0014211 107.1207 253.1586 15.21868478 99660
